This is the latest recevied weather packets stored in our database for station/object YB2YEN-13. If no packets are shown the sender has not sent any weather packets the latest 10 day(s).
| Time | Temp. | Humidity | Pressure | Rain* | Wind** | Luminosity | Snow |
|---|---|---|---|---|---|---|---|
| 1777973180 | 30.56° C | 99% | 976 hPa | - | - | 0 W/m² | - |
| 1777972858 | 30.56° C | 96% | 976 hPa | - | - | 0 W/m² | - |
| 1777972536 | 31.11° C | 95% | 976 hPa | - | - | 0 W/m² | - |
| 1777972214 | 30.56° C | 93% | 976 hPa | - | - | 0 W/m² | - |
| 1777971892 | 31.11° C | 91% | 976 hPa | - | - | 0 W/m² | - |
| 1777971570 | 31.11° C | 91% | 976 hPa | - | - | 0 W/m² | - |
| 1777971248 | 31.11° C | 90% | 976 hPa | - | - | 0 W/m² | - |
| 1777970926 | 31.67° C | 89% | 976 hPa | - | - | 0 W/m² | - |
| 1777970605 | 31.67° C | 88% | 976 hPa | - | - | 0 W/m² | - |
| 1777970282 | 31.67° C | 83% | 976 hPa | - | - | 0 W/m² | - |
| 1777969960 | 31.67° C | 90% | 976 hPa | - | - | 0 W/m² | - |
| 1777969638 | 32.22° C | 85% | 975 hPa | - | - | 0 W/m² | - |
| 1777969316 | 32.78° C | 77% | 975 hPa | - | - | 0 W/m² | - |
| 1777968994 | 32.78° C | 73% | 975 hPa | - | - | 0 W/m² | - |
| 1777968672 | 32.78° C | 72% | 976 hPa | - | - | 0 W/m² | - |
| 1777968350 | 33.89° C | 73% | 976 hPa | - | - | 0 W/m² | - |
| 1777968028 | 33.89° C | 73% | 975 hPa | - | - | 0 W/m² | - |
| 1777967706 | 33.33° C | 72% | 975 hPa | - | - | 0 W/m² | - |
| 1777967384 | 33.33° C | 79% | 975 hPa | - | - | 0 W/m² | - |
| 1777967062 | 32.78° C | 68% | 976 hPa | - | - | 0 W/m² | - |
| 1777966740 | 32.78° C | 75% | 975 hPa | - | - | 0 W/m² | - |
| 1777966418 | 33.33° C | 70% | 976 hPa | - | - | 0 W/m² | - |
| 1777966096 | 32.22° C | 79% | 976 hPa | - | - | 0 W/m² | - |
| 1777965774 | 32.22° C | 79% | 976 hPa | - | - | 0 W/m² | - |
| 1777965452 | 32.78° C | 77% | 976 hPa | - | - | 0 W/m² | - |
* Rain since midnight (hover to see other rain measurements)
** Current wind speed in m/s (hover to see current wind gust speed)